{"data":{"norad_id":57193,"intl_designator":"2023-091AD","name":"SITRO-AIS 8 (ANOKHIN)","alt_names":[],"object_type":"PAYLOAD","status":"ACTIVE","operator":null,"country":"CIS","launch_date":"2023-06-27","launch_site_code":"VOSTO","launch_vehicle":null,"mission":null,"orbit_class":"UNKNOWN","rcs_meters":null,"size_class":null,"mass_kg":null,"dimensions":null,"purposes":["tech_demo"],"wikipedia_slug":null,"has_3d_model":false,"image_url":null,"decayed_at":null,"tle_current":{"epoch":"2026-09-19T21:52:40.789344Z","epoch_age_seconds":65229,"freshness":"FRESH","line1":"1 57193U 23091AD  26262.91158321  .00010132  00000+0  30594-3 0  9998","line2":"2 57193  97.4961 329.7945 0011030 119.7513 240.4829 15.34399346178961","mean_motion":15.34399346,"eccentricity":0.001103,"inclination_deg":97.4961,"raan_deg":329.7945,"arg_perigee_deg":119.7513,"mean_anomaly_deg":240.4829,"bstar":0.00030594,"rev_number":17896,"period_min":93.847798081634,"perigee_km":455.15973510463,"apogee_km":470.25063296261,"semimajor_km":6840.8421840336,"source":"CELESTRAK","updated_at":"2026-09-20T09:00:48.036027Z"}}}